This is the latest recevied weather packets stored in our database for station/object KO4MMQ-10. If no packets are shown the sender has not sent any weather packets the latest 10 day(s).
| Time | Temp. | Humidity | Pressure | Rain* | Wind** | Luminosity | Snow |
|---|---|---|---|---|---|---|---|
| 1777601308 | 13.33° C | 69% | 1015.3 hPa | 0 mm | - | - | - |
| 1777598908 | 13.33° C | 66% | 1015.4 hPa | 0 mm | - | - | - |
| 1777598308 | 13.89° C | 65% | 1015.2 hPa | 0 mm | - | - | - |
| 1777596508 | 15° C | 60% | 1014.7 hPa | 0 mm | - | - | - |
| 1777595308 | 15.56° C | 58% | 1014.4 hPa | 0 mm | - | - | - |
| 1777594108 | 15.56° C | 54% | 1014.3 hPa | 0 mm | - | - | - |
| 1777593508 | 16.11° C | 55% | 1014.2 hPa | 0 mm | - | - | - |
| 1777592908 | 16.11° C | 54% | 1014.4 hPa | 0 mm | - | - | - |
| 1777591709 | 16.11° C | 51% | 1014.4 hPa | 0 mm | - | - | - |
| 1777591109 | 16.67° C | 56% | 1014.3 hPa | 0 mm | - | - | - |
| 1777589908 | 16.67° C | 52% | 1014.3 hPa | 0 mm | - | - | - |
| 1777589309 | 16.67° C | 51% | 1014.2 hPa | 0 mm | - | - | - |
| 1777588708 | 16.67° C | 52% | 1014 hPa | 0 mm | - | - | - |
| 1777586908 | 17.22° C | 52% | 1014.2 hPa | 0 mm | - | - | - |
| 1777586308 | 17.22° C | 49% | 1014.3 hPa | 0 mm | - | - | - |
| 1777585108 | 17.22° C | 47% | 1014.2 hPa | 0 mm | - | - | - |
| 1777584508 | 17.78° C | 49% | 1014.6 hPa | 0 mm | - | - | - |
| 1777583908 | 17.78° C | 50% | 1014.7 hPa | 0 mm | - | - | - |
| 1777583308 | 18.33° C | 49% | 1014.9 hPa | 0 mm | - | - | - |
| 1777582708 | 18.33° C | 47% | 1014.9 hPa | 0 mm | - | - | - |
| 1777580908 | 18.89° C | 46% | 1015 hPa | 0 mm | - | - | - |
| 1777580308 | 18.89° C | 45% | 1015.2 hPa | 0 mm | - | - | - |
| 1777579708 | 18.89° C | 47% | 1015.3 hPa | 0 mm | - | - | - |
| 1777577308 | 18.89° C | 47% | 1015.4 hPa | 0 mm | - | - | - |
| 1777576708 | 18.89° C | 50% | 1015.4 hPa | 0 mm | - | - | - |
* Rain latest hour (hover to see other rain measurements)
** Current wind speed in m/s (hover to see current wind gust speed)